Time,TemperatureF,DewpointF,PressureIn,WindDirection,WindDirectionDegrees,WindSpeedMPH,WindSpeedGustMPH,Humidity,HourlyPrecipIn,Conditions,Clouds,dailyrainin,SoftwareType,DateUTC
2013-11-20 00:02:00,52.3,52.3,29.92,North,358,0.0,0.0,100,0.00,,,0.00,Wunderground v.1.15,2013-11-20 08:02:00,
2013-11-20 00:07:00,52.3,52.3,29.92,North,358,0.0,0.0,100,0.00,,,0.00,Wunderground v.1.15,2013-11-20 08:07:00,
2013-11-20 00:12:00,52.3,52.3,29.92,North,358,0.0,0.0,100,0.00,,,0.00,Wunderground v.1.15,2013-11-20 08:12:00,
2013-11-20 00:18:00,52.3,52.3,29.92,North,358,0.0,0.0,100,0.00,,,0.00,Wunderground v.1.15,2013-11-20 08:18:00,
2013-11-20 00:23:00,52.3,52.3,29.92,North,358,0.0,0.0,100,0.00,,,0.00,Wunderground v.1.15,2013-11-20 08:23:00,
2013-11-20 00:28:00,52.3,52.3,29.92,North,358,0.0,0.0,100,0.00,,,0.00,Wunderground v.1.15,2013-11-20 08:28:00,
2013-11-20 00:34:00,52.3,52.3,29.91,North,358,0.0,0.0,100,0.00,,,0.00,Wunderground v.1.15,2013-11-20 08:34:00,
2013-11-20 00:39:00,52.3,52.3,29.91,North,358,0.0,0.0,100,0.00,,,0.00,Wunderground v.1.15,2013-11-20 08:39:00,
2013-11-20 00:44:00,52.2,52.2,29.91,North,358,0.0,0.0,100,0.00,,,0.00,Wunderground v.1.15,2013-11-20 08:44:00,
2013-11-20 00:50:00,52.2,52.2,29.90,North,358,0.0,0.0,100,0.00,,,0.00,Wunderground v.1.15,2013-11-20 08:50:00,
2013-11-20 00:55:00,52.2,52.2,29.90,North,358,0.0,0.0,100,0.00,,,0.00,Wunderground v.1.15,2013-11-20 08:55:00,
2013-11-20 01:00:00,52.2,52.2,29.90,North,358,0.0,0.0,100,0.00,,,0.00,Wunderground v.1.15,2013-11-20 09:00:00,
2013-11-20 01:05:00,52.2,52.2,29.90,North,358,0.0,0.0,100,0.00,,,0.00,Wunderground v.1.15,2013-11-20 09:05:00,
2013-11-20 01:11:00,52.2,52.2,29.90,North,358,0.0,0.0,100,0.00,,,0.00,Wunderground v.1.15,2013-11-20 09:11:00,
2013-11-20 01:16:00,52.0,52.0,29.90,North,358,0.0,0.0,100,0.00,,,0.00,Wunderground v.1.15,2013-11-20 09:16:00,
2013-11-20 01:22:00,52.0,52.0,29.90,North,358,0.0,0.0,100,0.00,,,0.00,Wunderground v.1.15,2013-11-20 09:22:00,
2013-11-20 01:27:00,52.0,52.0,29.90,North,358,0.0,0.0,100,0.00,,,0.00,Wunderground v.1.15,2013-11-20 09:27:00,
2013-11-20 01:33:00,52.0,52.0,29.90,North,358,0.0,0.0,100,0.00,,,0.00,Wunderground v.1.15,2013-11-20 09:33:00,
2013-11-20 01:39:00,52.0,52.0,29.90,North,358,0.0,0.0,100,0.00,,,0.00,Wunderground v.1.15,2013-11-20 09:39:00,
2013-11-20 01:44:00,52.2,52.2,29.90,North,358,0.0,0.0,100,0.00,,,0.00,Wunderground v.1.15,2013-11-20 09:44:00,
2013-11-20 01:49:00,52.2,52.2,29.90,North,358,0.0,0.0,100,0.00,,,0.00,Wunderground v.1.15,2013-11-20 09:49:00,
2013-11-20 01:55:00,52.2,52.2,29.90,North,358,0.0,0.0,100,0.00,,,0.00,Wunderground v.1.15,2013-11-20 09:55:00,
2013-11-20 02:00:00,52.2,52.2,29.90,North,358,0.0,0.0,100,0.00,,,0.01,Wunderground v.1.15,2013-11-20 10:00:00,
2013-11-20 02:05:00,52.2,52.2,29.89,North,358,0.0,0.0,100,0.00,,,0.01,Wunderground v.1.15,2013-11-20 10:05:00,
2013-11-20 02:10:00,52.2,52.2,29.89,North,358,0.0,0.0,100,0.00,,,0.01,Wunderground v.1.15,2013-11-20 10:10:00,
2013-11-20 02:15:00,52.2,52.2,29.89,North,358,0.0,0.0,100,0.00,,,0.01,Wunderground v.1.15,2013-11-20 10:15:00,
2013-11-20 02:20:00,52.0,52.0,29.89,North,358,0.0,0.0,100,0.00,,,0.01,Wunderground v.1.15,2013-11-20 10:20:00,
2013-11-20 02:25:00,52.0,52.0,29.89,North,358,0.0,0.0,100,0.00,,,0.01,Wunderground v.1.15,2013-11-20 10:25:00,
2013-11-20 02:30:00,52.0,52.0,29.89,North,358,0.0,0.0,100,0.00,,,0.01,Wunderground v.1.15,2013-11-20 10:30:00,
2013-11-20 02:35:00,52.0,52.0,29.89,North,358,0.0,0.0,100,0.00,,,0.01,Wunderground v.1.15,2013-11-20 10:35:00,
2013-11-20 02:40:00,52.2,52.2,29.89,North,358,0.0,0.0,100,0.00,,,0.01,Wunderground v.1.15,2013-11-20 10:40:00,
2013-11-20 02:45:00,52.2,52.2,29.89,North,358,0.0,0.0,100,0.00,,,0.01,Wunderground v.1.15,2013-11-20 10:45:00,
2013-11-20 02:50:00,52.2,52.2,29.89,North,358,0.0,0.0,100,0.00,,,0.01,Wunderground v.1.15,2013-11-20 10:50:00,
2013-11-20 02:55:00,52.2,52.2,29.89,North,358,0.0,0.0,100,0.00,,,0.01,Wunderground v.1.15,2013-11-20 10:55:00,
2013-11-20 03:00:00,52.3,52.3,29.89,North,358,0.0,0.0,100,0.00,,,0.01,Wunderground v.1.15,2013-11-20 11:00:00,
2013-11-20 03:05:00,52.3,52.3,29.89,North,358,0.0,0.0,100,0.00,,,0.02,Wunderground v.1.15,2013-11-20 11:05:00,
2013-11-20 03:10:00,52.3,52.3,29.89,North,358,0.0,0.0,100,0.00,,,0.02,Wunderground v.1.15,2013-11-20 11:10:00,
2013-11-20 03:15:00,52.3,52.3,29.89,North,358,0.0,0.0,100,0.00,,,0.02,Wunderground v.1.15,2013-11-20 11:15:00,
2013-11-20 03:20:00,52.5,52.5,29.89,North,358,0.0,0.0,100,0.00,,,0.02,Wunderground v.1.15,2013-11-20 11:20:00,
2013-11-20 03:25:00,52.3,52.3,29.89,North,358,0.0,0.0,100,0.00,,,0.02,Wunderground v.1.15,2013-11-20 11:25:00,
2013-11-20 03:30:00,52.3,52.3,29.89,North,358,0.0,0.0,100,0.00,,,0.03,Wunderground v.1.15,2013-11-20 11:30:00,
2013-11-20 03:35:00,52.3,52.3,29.88,North,358,0.0,0.0,100,0.00,,,0.03,Wunderground v.1.15,2013-11-20 11:35:00,
2013-11-20 03:40:00,52.5,52.5,29.88,North,358,0.0,0.0,100,0.00,,,0.03,Wunderground v.1.15,2013-11-20 11:40:00,
2013-11-20 03:45:00,52.3,52.3,29.87,North,358,0.0,0.0,100,0.00,,,0.03,Wunderground v.1.15,2013-11-20 11:45:00,
2013-11-20 03:50:00,52.3,52.3,29.87,North,358,0.0,0.0,100,0.00,,,0.03,Wunderground v.1.15,2013-11-20 11:50:00,
2013-11-20 03:55:00,52.3,52.3,29.87,North,358,0.0,0.0,100,0.00,,,0.03,Wunderground v.1.15,2013-11-20 11:55:00,
2013-11-20 04:00:00,52.3,52.3,29.87,North,358,0.0,0.0,100,0.00,,,0.03,Wunderground v.1.15,2013-11-20 12:00:00,
2013-11-20 04:05:00,52.3,52.3,29.87,North,358,0.0,0.0,100,0.00,,,0.03,Wunderground v.1.15,2013-11-20 12:05:00,
2013-11-20 04:10:00,52.3,52.3,29.87,North,358,0.0,0.0,100,0.00,,,0.04,Wunderground v.1.15,2013-11-20 12:10:00,
2013-11-20 04:15:00,52.3,52.3,29.86,North,358,0.0,0.0,100,0.00,,,0.04,Wunderground v.1.15,2013-11-20 12:15:00,
2013-11-20 04:20:00,52.2,52.2,29.86,North,358,0.0,0.0,100,0.00,,,0.04,Wunderground v.1.15,2013-11-20 12:20:00,
2013-11-20 04:25:00,52.2,52.2,29.86,North,358,0.0,0.0,100,0.00,,,0.04,Wunderground v.1.15,2013-11-20 12:25:00,
2013-11-20 04:30:00,52.2,52.2,29.86,North,358,0.0,0.0,100,0.00,,,0.04,Wunderground v.1.15,2013-11-20 12:30:00,
2013-11-20 04:35:00,52.2,52.2,29.86,North,358,0.0,0.0,100,0.00,,,0.04,Wunderground v.1.15,2013-11-20 12:35:00,
2013-11-20 04:40:00,52.3,52.3,29.86,North,358,0.0,0.0,100,0.00,,,0.04,Wunderground v.1.15,2013-11-20 12:40:00,
2013-11-20 04:45:00,52.3,52.3,29.86,North,358,0.0,0.0,100,0.00,,,0.04,Wunderground v.1.15,2013-11-20 12:45:00,
2013-11-20 04:50:00,52.3,52.3,29.86,North,358,0.0,0.0,100,0.00,,,0.04,Wunderground v.1.15,2013-11-20 12:50:00,
2013-11-20 04:55:00,52.3,52.3,29.86,North,358,0.0,0.0,100,0.00,,,0.05,Wunderground v.1.15,2013-11-20 12:55:00,
2013-11-20 05:00:00,52.3,52.3,29.86,North,358,0.0,0.0,100,0.00,,,0.05,Wunderground v.1.15,2013-11-20 13:00:00,
2013-11-20 05:05:00,52.5,52.5,29.86,North,358,0.0,0.0,100,0.00,,,0.05,Wunderground v.1.15,2013-11-20 13:05:00,
2013-11-20 05:10:00,52.5,52.5,29.86,North,358,0.0,0.0,100,0.00,,,0.05,Wunderground v.1.15,2013-11-20 13:10:00,
2013-11-20 05:15:00,52.5,52.5,29.86,North,358,0.0,0.0,100,0.00,,,0.05,Wunderground v.1.15,2013-11-20 13:15:00,
2013-11-20 05:21:00,52.5,52.5,29.86,North,358,0.0,0.0,100,0.00,,,0.05,Wunderground v.1.15,2013-11-20 13:21:00,
2013-11-20 05:26:00,52.5,52.5,29.86,North,358,0.0,0.0,100,0.00,,,0.06,Wunderground v.1.15,2013-11-20 13:26:00,
2013-11-20 05:31:00,52.5,52.5,29.86,North,358,0.0,0.0,100,0.00,,,0.06,Wunderground v.1.15,2013-11-20 13:31:00,
2013-11-20 05:36:00,52.5,52.5,29.86,North,358,0.0,0.0,100,0.00,,,0.06,Wunderground v.1.15,2013-11-20 13:36:00,
2013-11-20 05:41:00,52.6,52.6,29.86,North,358,0.0,0.0,100,0.00,,,0.06,Wunderground v.1.15,2013-11-20 13:41:00,
2013-11-20 05:46:00,52.6,52.6,29.86,North,358,0.0,0.0,100,0.00,,,0.06,Wunderground v.1.15,2013-11-20 13:46:00,
2013-11-20 05:51:00,52.6,52.6,29.86,North,358,0.0,0.0,100,0.00,,,0.06,Wunderground v.1.15,2013-11-20 13:51:00,
2013-11-20 05:56:00,52.6,52.6,29.86,North,358,0.0,0.0,100,0.00,,,0.06,Wunderground v.1.15,2013-11-20 13:56:00,
2013-11-20 06:01:00,52.6,52.6,29.87,North,358,0.0,0.0,100,0.00,,,0.06,Wunderground v.1.15,2013-11-20 14:01:00,
2013-11-20 06:06:00,52.6,52.6,29.87,North,358,0.0,0.0,100,0.00,,,0.06,Wunderground v.1.15,2013-11-20 14:06:00,
2013-11-20 06:11:00,52.8,52.8,29.87,North,358,0.0,0.0,100,0.00,,,0.06,Wunderground v.1.15,2013-11-20 14:11:00,
2013-11-20 06:16:00,52.8,52.8,29.87,North,358,0.0,0.0,100,0.00,,,0.06,Wunderground v.1.15,2013-11-20 14:16:00,
2013-11-20 06:21:00,52.8,52.8,29.87,North,358,0.0,0.0,100,0.00,,,0.07,Wunderground v.1.15,2013-11-20 14:21:00,
2013-11-20 06:26:00,52.9,52.9,29.87,North,358,0.0,0.0,100,0.00,,,0.07,Wunderground v.1.15,2013-11-20 14:26:00,
2013-11-20 06:31:00,52.9,52.9,29.87,North,358,0.0,0.0,100,0.00,,,0.07,Wunderground v.1.15,2013-11-20 14:31:00,
2013-11-20 06:36:00,52.9,52.9,29.87,North,358,0.0,0.0,100,0.00,,,0.07,Wunderground v.1.15,2013-11-20 14:36:00,
2013-11-20 06:41:00,52.9,52.9,29.87,North,358,0.0,0.0,100,0.00,,,0.08,Wunderground v.1.15,2013-11-20 14:41:00,
2013-11-20 06:46:00,52.9,52.9,29.87,North,358,0.0,0.0,100,0.00,,,0.08,Wunderground v.1.15,2013-11-20 14:46:00,
2013-11-20 06:51:00,52.9,52.9,29.87,North,358,0.0,0.0,100,0.00,,,0.08,Wunderground v.1.15,2013-11-20 14:51:00,
2013-11-20 06:56:00,52.9,52.9,29.87,North,358,0.0,0.0,100,0.00,,,0.08,Wunderground v.1.15,2013-11-20 14:56:00,
2013-11-20 07:01:00,53.1,53.1,29.87,North,358,0.0,0.0,100,0.00,,,0.08,Wunderground v.1.15,2013-11-20 15:01:00,
2013-11-20 07:06:00,53.1,53.1,29.87,North,358,0.0,0.0,100,0.00,,,0.08,Wunderground v.1.15,2013-11-20 15:06:00,
2013-11-20 07:11:00,53.2,53.2,29.87,North,358,0.0,0.0,100,0.00,,,0.08,Wunderground v.1.15,2013-11-20 15:11:00,
2013-11-20 07:16:00,53.3,53.3,29.87,North,358,0.0,0.0,100,0.00,,,0.09,Wunderground v.1.15,2013-11-20 15:16:00,
2013-11-20 07:21:00,53.6,53.6,29.87,North,358,0.0,0.0,100,0.00,,,0.09,Wunderground v.1.15,2013-11-20 15:21:00,
2013-11-20 07:26:00,53.6,53.6,29.87,North,358,0.0,0.0,100,0.00,,,0.09,Wunderground v.1.15,2013-11-20 15:26:00,
2013-11-20 07:31:00,53.8,53.8,29.87,North,358,0.0,0.0,100,0.00,,,0.09,Wunderground v.1.15,2013-11-20 15:31:00,
2013-11-20 07:36:00,53.9,53.9,29.87,North,358,1.0,2.0,100,0.00,,,0.09,Wunderground v.1.15,2013-11-20 15:36:00,
2013-11-20 07:41:00,54.1,54.1,29.87,North,1,0.0,0.0,100,0.00,,,0.10,Wunderground v.1.15,2013-11-20 15:41:00,
2013-11-20 07:46:00,54.1,54.1,29.87,North,1,0.0,1.0,100,0.00,,,0.10,Wunderground v.1.15,2013-11-20 15:46:00,
2013-11-20 07:51:00,54.2,54.2,29.87,North,1,0.0,0.0,100,0.00,,,0.10,Wunderground v.1.15,2013-11-20 15:51:00,
2013-11-20 07:56:00,54.4,54.4,29.87,North,1,0.0,0.0,100,0.00,,,0.10,Wunderground v.1.15,2013-11-20 15:56:00,
2013-11-20 08:01:00,54.4,54.4,29.88,North,1,0.0,0.0,100,0.00,,,0.10,Wunderground v.1.15,2013-11-20 16:01:00,
2013-11-20 08:06:00,54.5,54.5,29.88,North,1,0.0,0.0,100,0.00,,,0.10,Wunderground v.1.15,2013-11-20 16:06:00,
2013-11-20 08:11:00,54.7,54.7,29.88,North,1,0.0,0.0,100,0.00,,,0.10,Wunderground v.1.15,2013-11-20 16:11:00,
2013-11-20 08:16:00,54.8,54.8,29.87,North,1,0.0,0.0,100,0.00,,,0.10,Wunderground v.1.15,2013-11-20 16:16:00,
2013-11-20 08:21:00,55.0,55.0,29.87,North,1,0.0,0.0,100,0.00,,,0.10,Wunderground v.1.15,2013-11-20 16:21:00,
2013-11-20 08:26:00,55.1,55.1,29.87,North,1,0.0,0.0,100,0.00,,,0.10,Wunderground v.1.15,2013-11-20 16:26:00,
2013-11-20 08:31:00,55.3,55.3,29.87,North,1,0.0,0.0,100,0.00,,,0.10,Wunderground v.1.15,2013-11-20 16:31:00,
2013-11-20 08:36:00,55.4,55.4,29.87,North,1,0.0,1.0,100,0.00,,,0.10,Wunderground v.1.15,2013-11-20 16:36:00,
2013-11-20 08:41:00,55.6,55.6,29.87,East,94,0.0,2.0,100,0.00,,,0.10,Wunderground v.1.15,2013-11-20 16:41:00,
2013-11-20 08:46:00,55.9,55.9,29.86,East,94,0.0,3.0,100,0.00,,,0.10,Wunderground v.1.15,2013-11-20 16:46:00,
2013-11-20 08:51:00,56.0,56.0,29.86,East,94,0.0,0.0,100,0.00,,,0.10,Wunderground v.1.15,2013-11-20 16:51:00,
2013-11-20 08:56:00,56.2,56.2,29.86,East,94,0.0,2.0,100,0.00,,,0.10,Wunderground v.1.15,2013-11-20 16:56:00,
2013-11-20 09:01:00,56.3,56.3,29.87,East,94,0.0,0.0,100,0.00,,,0.10,Wunderground v.1.15,2013-11-20 17:01:00,
2013-11-20 09:06:00,56.3,56.3,29.87,East,94,0.0,0.0,100,0.00,,,0.10,Wunderground v.1.15,2013-11-20 17:06:00,
2013-11-20 09:11:00,56.5,56.5,29.87,East,94,0.0,0.0,100,0.00,,,0.10,Wunderground v.1.15,2013-11-20 17:11:00,
2013-11-20 09:16:00,56.9,56.9,29.87,East,94,0.0,0.0,100,0.00,,,0.10,Wunderground v.1.15,2013-11-20 17:16:00,
2013-11-20 09:21:00,57.0,57.0,29.87,East,94,0.0,1.0,100,0.00,,,0.10,Wunderground v.1.15,2013-11-20 17:21:00,
2013-11-20 09:26:00,57.2,57.2,29.87,East,94,0.0,1.0,100,0.00,,,0.10,Wunderground v.1.15,2013-11-20 17:26:00,
2013-11-20 09:31:00,57.3,57.3,29.87,East,94,2.0,2.0,100,0.00,,,0.10,Wunderground v.1.15,2013-11-20 17:31:00,
2013-11-20 09:36:00,57.5,57.5,29.87,ESE,120,0.0,3.0,100,0.00,,,0.10,Wunderground v.1.15,2013-11-20 17:36:00,
2013-11-20 09:41:00,57.8,57.8,29.87,ESE,115,2.0,2.0,100,0.00,,,0.10,Wunderground v.1.15,2013-11-20 17:41:00,
2013-11-20 09:46:00,57.8,57.8,29.87,ESE,115,0.0,3.0,100,0.00,,,0.10,Wunderground v.1.15,2013-11-20 17:46:00,
2013-11-20 09:51:00,58.0,58.0,29.87,ESE,115,0.0,0.0,100,0.00,,,0.10,Wunderground v.1.15,2013-11-20 17:51:00,
2013-11-20 09:56:00,58.1,58.1,29.87,ESE,115,0.0,1.0,100,0.00,,,0.10,Wunderground v.1.15,2013-11-20 17:56:00,
2013-11-20 10:01:00,58.3,58.3,29.87,ESE,115,0.0,0.0,100,0.00,,,0.10,Wunderground v.1.15,2013-11-20 18:01:00,
2013-11-20 10:06:00,58.4,58.4,29.87,ESE,115,0.0,0.0,100,0.00,,,0.10,Wunderground v.1.15,2013-11-20 18:06:00,
2013-11-20 10:11:00,58.6,58.6,29.87,ESE,115,0.0,0.0,100,0.00,,,0.10,Wunderground v.1.15,2013-11-20 18:11:00,
2013-11-20 10:16:00,58.9,58.9,29.86,ESE,115,0.0,0.0,100,0.00,,,0.10,Wunderground v.1.15,2013-11-20 18:16:00,
2013-11-20 10:21:00,58.9,58.9,29.86,ESE,111,0.0,0.0,100,0.00,,,0.10,Wunderground v.1.15,2013-11-20 18:21:00,
2013-11-20 10:26:00,59.0,59.0,29.86,East,96,0.0,2.0,100,0.00,,,0.10,Wunderground v.1.15,2013-11-20 18:26:00,
2013-11-20 10:31:00,59.0,59.0,29.86,East,96,0.0,0.0,100,0.00,,,0.10,Wunderground v.1.15,2013-11-20 18:31:00,
2013-11-20 10:36:00,59.2,59.2,29.86,East,96,0.0,0.0,100,0.00,,,0.10,Wunderground v.1.15,2013-11-20 18:36:00,
2013-11-20 10:41:00,59.3,59.3,29.86,East,96,0.0,1.0,100,0.00,,,0.10,Wunderground v.1.15,2013-11-20 18:41:00,
2013-11-20 10:46:00,59.5,59.5,29.85,ESE,105,0.0,3.0,100,0.00,,,0.10,Wunderground v.1.15,2013-11-20 18:46:00,
2013-11-20 10:51:00,59.5,59.5,29.85,ESE,107,4.0,4.0,100,0.00,,,0.10,Wunderground v.1.15,2013-11-20 18:51:00,
2013-11-20 10:56:00,59.3,59.3,29.85,North,359,0.0,4.0,100,0.00,,,0.10,Wunderground v.1.15,2013-11-20 18:56:00,
2013-11-20 11:01:00,59.5,59.5,29.84,ENE,73,3.0,4.0,100,0.00,,,0.10,Wunderground v.1.15,2013-11-20 19:01:00,
2013-11-20 11:06:00,59.9,59.9,29.84,ESE,106,1.0,4.0,100,0.00,,,0.10,Wunderground v.1.15,2013-11-20 19:06:00,
2013-11-20 11:11:00,59.8,59.8,29.84,North,1,0.0,3.0,100,0.00,,,0.10,Wunderground v.1.15,2013-11-20 19:11:00,
2013-11-20 11:16:00,60.1,60.1,29.84,East,85,0.0,3.0,100,0.00,,,0.10,Wunderground v.1.15,2013-11-20 19:16:00,
2013-11-20 11:21:00,60.2,60.2,29.84,East,99,1.0,1.0,100,0.00,,,0.10,Wunderground v.1.15,2013-11-20 19:21:00,
2013-11-20 11:26:00,60.4,60.4,29.84,East,99,0.0,3.0,100,0.00,,,0.10,Wunderground v.1.15,2013-11-20 19:26:00,
2013-11-20 11:31:00,60.4,60.4,29.83,East,93,0.0,2.0,100,0.00,,,0.10,Wunderground v.1.15,2013-11-20 19:31:00,
2013-11-20 11:36:00,60.5,60.2,29.83,SE,124,0.0,3.0,99,0.00,,,0.10,Wunderground v.1.15,2013-11-20 19:36:00,
2013-11-20 11:41:00,60.7,60.1,29.83,SE,124,0.0,2.0,98,0.00,,,0.10,Wunderground v.1.15,2013-11-20 19:41:00,
2013-11-20 11:46:00,60.7,59.6,29.83,ESE,110,0.0,3.0,96,0.00,,,0.10,Wunderground v.1.15,2013-11-20 19:46:00,
2013-11-20 11:52:00,60.7,59.3,29.83,ESE,105,0.0,2.0,95,0.00,,,0.10,Wunderground v.1.15,2013-11-20 19:52:00,
2013-11-20 11:57:00,60.5,58.8,29.83,SE,130,0.0,3.0,94,0.00,,,0.10,Wunderground v.1.15,2013-11-20 19:57:00,
2013-11-20 12:02:00,60.5,58.5,29.82,SE,129,0.0,4.0,93,0.00,,,0.10,Wunderground v.1.15,2013-11-20 20:02:00,
2013-11-20 12:07:00,60.7,58.7,29.82,SE,125,2.0,4.0,93,0.00,,,0.10,Wunderground v.1.15,2013-11-20 20:07:00,
2013-11-20 12:12:00,61.0,58.7,29.82,SSE,154,0.0,1.0,92,0.00,,,0.10,Wunderground v.1.15,2013-11-20 20:12:00,
2013-11-20 12:17:00,61.3,59.0,29.81,South,173,0.0,2.0,92,0.00,,,0.10,Wunderground v.1.15,2013-11-20 20:17:00,
2013-11-20 12:22:00,61.3,58.3,29.81,WSW,256,2.0,2.0,90,0.00,,,0.10,Wunderground v.1.15,2013-11-20 20:22:00,
2013-11-20 12:27:00,61.3,58.7,29.81,WSW,256,0.0,2.0,91,0.00,,,0.10,Wunderground v.1.15,2013-11-20 20:27:00,
2013-11-20 12:32:00,61.6,58.3,29.80,NNE,30,0.0,4.0,89,0.00,,,0.10,Wunderground v.1.15,2013-11-20 20:32:00,
2013-11-20 12:37:00,61.6,58.3,29.80,West,276,0.0,4.0,89,0.00,,,0.10,Wunderground v.1.15,2013-11-20 20:37:00,
2013-11-20 12:42:00,61.6,58.3,29.80,SE,134,0.0,0.0,89,0.00,,,0.10,Wunderground v.1.15,2013-11-20 20:42:00,
2013-11-20 12:47:00,61.6,57.7,29.80,WSW,250,0.0,2.0,87,0.00,,,0.10,Wunderground v.1.15,2013-11-20 20:47:00,
2013-11-20 12:52:00,61.8,58.2,29.80,WSW,249,0.0,0.0,88,0.00,,,0.10,Wunderground v.1.15,2013-11-20 20:52:00,
2013-11-20 12:57:00,61.6,57.7,29.80,SSW,210,0.0,1.0,87,0.00,,,0.10,Wunderground v.1.15,2013-11-20 20:57:00,
2013-11-20 13:02:00,61.6,57.7,29.79,West,275,0.0,3.0,87,0.00,,,0.10,Wunderground v.1.15,2013-11-20 21:02:00,
2013-11-20 13:07:00,61.5,57.6,29.79,NW,323,0.0,3.0,87,0.00,,,0.10,Wunderground v.1.15,2013-11-20 21:07:00,
2013-11-20 13:12:00,61.3,57.4,29.79,WNW,297,0.0,3.0,87,0.00,,,0.10,Wunderground v.1.15,2013-11-20 21:12:00,
2013-11-20 13:17:00,61.0,57.4,29.79,WNW,297,0.0,3.0,88,0.00,,,0.10,Wunderground v.1.15,2013-11-20 21:17:00,
2013-11-20 13:22:00,60.7,57.4,29.79,WNW,297,0.0,1.0,89,0.00,,,0.11,Wunderground v.1.15,2013-11-20 21:22:00,
2013-11-20 13:27:00,60.2,57.6,29.79,WNW,297,0.0,3.0,91,0.00,,,0.11,Wunderground v.1.15,2013-11-20 21:27:00,
2013-11-20 13:32:00,60.2,57.9,29.79,WNW,297,0.0,0.0,92,0.00,,,0.11,Wunderground v.1.15,2013-11-20 21:32:00,
2013-11-20 13:37:00,60.1,58.1,29.79,West,271,0.0,1.0,93,0.00,,,0.11,Wunderground v.1.15,2013-11-20 21:37:00,
2013-11-20 13:42:00,59.9,58.2,29.79,West,271,0.0,1.0,94,0.00,,,0.11,Wunderground v.1.15,2013-11-20 21:42:00,
2013-11-20 13:47:00,59.8,58.4,29.79,NW,304,0.0,2.0,95,0.00,,,0.11,Wunderground v.1.15,2013-11-20 21:47:00,
2013-11-20 13:52:00,59.5,58.4,29.79,WNW,297,0.0,0.0,96,0.00,,,0.12,Wunderground v.1.15,2013-11-20 21:52:00,
2013-11-20 13:57:00,59.3,58.2,29.79,WNW,297,0.0,0.0,96,0.00,,,0.12,Wunderground v.1.15,2013-11-20 21:57:00,
2013-11-20 14:02:00,59.3,58.2,29.79,WSW,255,0.0,1.0,96,0.00,,,0.12,Wunderground v.1.15,2013-11-20 22:02:00,
2013-11-20 14:07:00,59.0,57.9,29.79,WNW,292,0.0,4.0,96,0.00,,,0.12,Wunderground v.1.15,2013-11-20 22:07:00,
2013-11-20 14:12:00,58.6,57.5,29.79,NW,314,2.0,4.0,96,0.00,,,0.12,Wunderground v.1.15,2013-11-20 22:12:00,
2013-11-20 14:17:00,58.3,57.5,29.79,NW,314,0.0,4.0,97,0.00,,,0.12,Wunderground v.1.15,2013-11-20 22:17:00,
2013-11-20 14:22:00,58.4,57.8,29.79,NW,314,0.0,0.0,98,0.00,,,0.12,Wunderground v.1.15,2013-11-20 22:22:00,
2013-11-20 14:27:00,58.4,57.8,29.79,NNW,331,0.0,1.0,98,0.00,,,0.12,Wunderground v.1.15,2013-11-20 22:27:00,
2013-11-20 14:32:00,58.6,58.3,29.79,NNW,331,1.0,1.0,99,0.00,,,0.12,Wunderground v.1.15,2013-11-20 22:32:00,
2013-11-20 14:37:00,58.4,57.8,29.79,NNW,331,1.0,2.0,98,0.00,,,0.12,Wunderground v.1.15,2013-11-20 22:37:00,
2013-11-20 14:42:00,58.3,58.0,29.79,North,7,1.0,1.0,99,0.00,,,0.12,Wunderground v.1.15,2013-11-20 22:42:00,
2013-11-20 14:47:00,58.3,58.0,29.79,WNW,295,0.0,2.0,99,0.00,,,0.12,Wunderground v.1.15,2013-11-20 22:47:00,
2013-11-20 14:52:00,58.6,58.3,29.79,WNW,295,0.0,0.0,99,0.00,,,0.12,Wunderground v.1.15,2013-11-20 22:52:00,
2013-11-20 14:57:00,58.7,58.7,29.79,WNW,295,0.0,1.0,100,0.00,,,0.12,Wunderground v.1.15,2013-11-20 22:57:00,
2013-11-20 15:02:00,58.9,58.9,29.78,WNW,295,0.0,0.0,100,0.00,,,0.12,Wunderground v.1.15,2013-11-20 23:02:00,
2013-11-20 15:07:00,58.9,58.9,29.78,WNW,295,0.0,2.0,100,0.00,,,0.12,Wunderground v.1.15,2013-11-20 23:07:00,
2013-11-20 15:12:00,58.9,58.9,29.78,WNW,295,0.0,1.0,100,0.00,,,0.12,Wunderground v.1.15,2013-11-20 23:12:00,
2013-11-20 15:17:00,59.0,59.0,29.79,WNW,295,0.0,1.0,100,0.00,,,0.12,Wunderground v.1.15,2013-11-20 23:17:00,
2013-11-20 15:22:00,59.0,59.0,29.79,WNW,295,0.0,1.0,100,0.00,,,0.12,Wunderground v.1.15,2013-11-20 23:22:00,
2013-11-20 15:27:00,59.0,59.0,29.79,NNW,328,0.0,1.0,100,0.00,,,0.12,Wunderground v.1.15,2013-11-20 23:27:00,
2013-11-20 15:32:00,58.7,58.7,29.79,NNW,328,0.0,0.0,100,0.00,,,0.12,Wunderground v.1.15,2013-11-20 23:32:00,
2013-11-20 15:37:00,58.6,58.6,29.79,NNW,328,0.0,1.0,100,0.00,,,0.12,Wunderground v.1.15,2013-11-20 23:37:00,
2013-11-20 15:42:00,58.6,58.6,29.79,NNW,328,0.0,0.0,100,0.00,,,0.12,Wunderground v.1.15,2013-11-20 23:42:00,
2013-11-20 15:47:00,58.4,58.4,29.79,NNW,328,0.0,0.0,100,0.00,,,0.13,Wunderground v.1.15,2013-11-20 23:47:00,
2013-11-20 15:52:00,58.4,58.4,29.79,NNW,328,0.0,0.0,100,0.00,,,0.13,Wunderground v.1.15,2013-11-20 23:52:00,
2013-11-20 15:57:00,58.3,58.3,29.79,NNW,328,0.0,0.0,100,0.00,,,0.13,Wunderground v.1.15,2013-11-20 23:57:00,
2013-11-20 16:03:00,58.1,58.1,29.79,NNW,328,0.0,0.0,100,0.00,,,0.13,Wunderground v.1.15,2013-11-21 00:03:00,
2013-11-20 16:08:00,58.0,58.0,29.79,NNW,328,0.0,1.0,100,0.00,,,0.14,Wunderground v.1.15,2013-11-21 00:08:00,
2013-11-20 16:13:00,58.0,58.0,29.79,NNW,328,0.0,0.0,100,0.00,,,0.14,Wunderground v.1.15,2013-11-21 00:13:00,
2013-11-20 16:18:00,58.0,58.0,29.79,NNW,328,0.0,0.0,100,0.00,,,0.14,Wunderground v.1.15,2013-11-21 00:18:00,
2013-11-20 16:23:00,58.0,58.0,29.79,NNW,328,0.0,0.0,100,0.04,,,0.15,Wunderground v.1.15,2013-11-21 00:23:00,
2013-11-20 16:28:00,58.0,58.0,29.79,NNW,328,0.0,0.0,100,0.04,,,0.15,Wunderground v.1.15,2013-11-21 00:28:00,
2013-11-20 16:33:00,57.8,57.8,29.79,NNW,328,0.0,1.0,100,0.04,,,0.15,Wunderground v.1.15,2013-11-21 00:33:00,
2013-11-20 16:38:00,57.6,57.6,29.79,NNW,328,0.0,1.0,100,0.00,,,0.15,Wunderground v.1.15,2013-11-21 00:38:00,
2013-11-20 16:43:00,57.6,57.6,29.79,NNW,328,0.0,0.0,100,0.00,,,0.16,Wunderground v.1.15,2013-11-21 00:43:00,
2013-11-20 16:48:00,57.6,57.6,29.79,NNW,328,0.0,0.0,100,0.11,,,0.17,Wunderground v.1.15,2013-11-21 00:48:00,
2013-11-20 16:53:00,57.6,57.6,29.79,NNW,328,0.0,0.0,100,0.11,,,0.17,Wunderground v.1.15,2013-11-21 00:53:00,
2013-11-20 16:58:00,57.6,57.6,29.79,NNW,328,0.0,0.0,100,0.06,,,0.17,Wunderground v.1.15,2013-11-21 00:58:00,
2013-11-20 17:03:00,57.6,57.6,29.79,NNW,328,0.0,0.0,100,0.04,,,0.17,Wunderground v.1.15,2013-11-21 01:03:00,
2013-11-20 17:08:00,57.5,57.5,29.79,NNW,328,0.0,0.0,100,0.00,,,0.17,Wunderground v.1.15,2013-11-21 01:08:00,
2013-11-20 17:13:00,57.5,57.5,29.79,NNW,328,0.0,0.0,100,0.00,,,0.18,Wunderground v.1.15,2013-11-21 01:13:00,
2013-11-20 17:18:00,57.5,57.5,29.79,NNW,328,0.0,0.0,100,0.00,,,0.18,Wunderground v.1.15,2013-11-21 01:18:00,
2013-11-20 17:23:00,57.5,57.5,29.79,NNW,328,0.0,0.0,100,0.00,,,0.18,Wunderground v.1.15,2013-11-21 01:23:00,
2013-11-20 17:28:00,57.5,57.5,29.79,NNW,328,0.0,0.0,100,0.00,,,0.18,Wunderground v.1.15,2013-11-21 01:28:00,
2013-11-20 17:33:00,57.3,57.3,29.79,NNW,328,0.0,0.0,100,0.00,,,0.19,Wunderground v.1.15,2013-11-21 01:33:00,
2013-11-20 17:38:00,57.3,57.3,29.79,NNW,328,0.0,0.0,100,0.16,,,0.20,Wunderground v.1.15,2013-11-21 01:38:00,
2013-11-20 17:43:00,57.3,57.3,29.79,NNW,328,0.0,0.0,100,0.07,,,0.20,Wunderground v.1.15,2013-11-21 01:43:00,
2013-11-20 17:48:00,57.3,57.3,29.79,NNW,328,0.0,0.0,100,0.04,,,0.20,Wunderground v.1.15,2013-11-21 01:48:00,
2013-11-20 17:53:00,57.3,57.3,29.79,NNW,328,0.0,0.0,100,0.00,,,0.20,Wunderground v.1.15,2013-11-21 01:53:00,
2013-11-20 17:58:00,57.3,57.3,29.79,NNW,328,0.0,0.0,100,0.00,,,0.20,Wunderground v.1.15,2013-11-21 01:58:00,
2013-11-20 18:03:00,57.2,57.2,29.78,NNW,328,0.0,0.0,100,0.00,,,0.20,Wunderground v.1.15,2013-11-21 02:03:00,
2013-11-20 18:08:00,57.2,57.2,29.78,NNW,328,0.0,0.0,100,0.00,,,0.20,Wunderground v.1.15,2013-11-21 02:08:00,
2013-11-20 18:13:00,57.2,57.2,29.78,NNW,328,0.0,0.0,100,0.00,,,0.20,Wunderground v.1.15,2013-11-21 02:13:00,
2013-11-20 18:18:00,57.3,57.3,29.78,NNW,328,0.0,0.0,100,0.00,,,0.20,Wunderground v.1.15,2013-11-21 02:18:00,
2013-11-20 18:23:00,57.3,57.3,29.78,NNW,328,0.0,0.0,100,0.00,,,0.20,Wunderground v.1.15,2013-11-21 02:23:00,
2013-11-20 18:28:00,57.3,57.3,29.78,NNW,328,0.0,0.0,100,0.00,,,0.20,Wunderground v.1.15,2013-11-21 02:28:00,
2013-11-20 18:33:00,57.3,57.3,29.79,NNW,328,0.0,0.0,100,0.00,,,0.20,Wunderground v.1.15,2013-11-21 02:33:00,
2013-11-20 18:38:00,57.3,57.3,29.79,NNW,328,0.0,0.0,100,0.00,,,0.20,Wunderground v.1.15,2013-11-21 02:38:00,
2013-11-20 18:43:00,57.3,57.3,29.79,NNW,328,0.0,0.0,100,0.00,,,0.20,Wunderground v.1.15,2013-11-21 02:43:00,
2013-11-20 18:48:00,57.3,57.3,29.79,NNW,328,0.0,0.0,100,0.00,,,0.20,Wunderground v.1.15,2013-11-21 02:48:00,
2013-11-20 18:53:00,57.3,57.3,29.79,NNW,328,0.0,0.0,100,0.00,,,0.20,Wunderground v.1.15,2013-11-21 02:53:00,
2013-11-20 18:58:00,57.3,57.3,29.79,NNW,328,0.0,0.0,100,0.00,,,0.21,Wunderground v.1.15,2013-11-21 02:58:00,
2013-11-20 19:03:00,57.3,57.3,29.79,NNW,328,0.0,0.0,100,0.00,,,0.21,Wunderground v.1.15,2013-11-21 03:03:00,
2013-11-20 19:08:00,57.3,57.3,29.79,NNW,328,0.0,0.0,100,0.00,,,0.21,Wunderground v.1.15,2013-11-21 03:08:00,
2013-11-20 19:13:00,57.3,57.3,29.79,NNW,328,0.0,0.0,100,0.00,,,0.21,Wunderground v.1.15,2013-11-21 03:13:00,
2013-11-20 19:18:00,57.3,57.3,29.79,NNW,328,0.0,0.0,100,0.00,,,0.21,Wunderground v.1.15,2013-11-21 03:18:00,
2013-11-20 19:23:00,57.2,57.2,29.79,NNW,328,0.0,0.0,100,0.00,,,0.21,Wunderground v.1.15,2013-11-21 03:23:00,
2013-11-20 19:28:00,57.2,57.2,29.79,NNW,328,0.0,0.0,100,0.00,,,0.21,Wunderground v.1.15,2013-11-21 03:28:00,
2013-11-20 19:33:00,57.2,57.2,29.79,NNW,328,0.0,0.0,100,0.00,,,0.21,Wunderground v.1.15,2013-11-21 03:33:00,
2013-11-20 19:38:00,57.2,57.2,29.79,NNW,328,0.0,0.0,100,0.00,,,0.21,Wunderground v.1.15,2013-11-21 03:38:00,
2013-11-20 19:43:00,57.2,57.2,29.79,NNW,328,0.0,0.0,100,0.00,,,0.21,Wunderground v.1.15,2013-11-21 03:43:00,
2013-11-20 19:48:00,57.2,57.2,29.80,NNW,328,0.0,0.0,100,0.00,,,0.21,Wunderground v.1.15,2013-11-21 03:48:00,
2013-11-20 19:53:00,57.2,57.2,29.80,NNW,328,0.0,0.0,100,0.00,,,0.21,Wunderground v.1.15,2013-11-21 03:53:00,
2013-11-20 19:58:00,57.2,57.2,29.80,NNW,328,0.0,0.0,100,0.00,,,0.21,Wunderground v.1.15,2013-11-21 03:58:00,
2013-11-20 20:03:00,57.0,57.0,29.80,NNW,328,0.0,0.0,100,0.00,,,0.21,Wunderground v.1.15,2013-11-21 04:03:00,
2013-11-20 20:08:00,57.0,57.0,29.80,NNW,328,0.0,0.0,100,0.00,,,0.21,Wunderground v.1.15,2013-11-21 04:08:00,
2013-11-20 20:13:00,57.0,57.0,29.80,NNW,328,0.0,0.0,100,0.00,,,0.21,Wunderground v.1.15,2013-11-21 04:13:00,
2013-11-20 20:18:00,57.0,57.0,29.80,NNW,328,0.0,0.0,100,0.00,,,0.21,Wunderground v.1.15,2013-11-21 04:18:00,
2013-11-20 20:23:00,57.0,57.0,29.80,NNW,328,0.0,0.0,100,0.00,,,0.21,Wunderground v.1.15,2013-11-21 04:23:00,
2013-11-20 20:28:00,57.0,57.0,29.80,NNW,328,0.0,0.0,100,0.00,,,0.21,Wunderground v.1.15,2013-11-21 04:28:00,
2013-11-20 20:33:00,57.2,57.2,29.81,NNW,328,0.0,0.0,100,0.00,,,0.21,Wunderground v.1.15,2013-11-21 04:33:00,
2013-11-20 20:38:00,57.2,57.2,29.81,NNW,328,0.0,0.0,100,0.00,,,0.21,Wunderground v.1.15,2013-11-21 04:38:00,
2013-11-20 20:43:00,57.2,57.2,29.81,NNW,328,0.0,0.0,100,0.00,,,0.21,Wunderground v.1.15,2013-11-21 04:43:00,
2013-11-20 20:48:00,57.2,57.2,29.81,NNW,328,0.0,0.0,100,0.00,,,0.21,Wunderground v.1.15,2013-11-21 04:48:00,
2013-11-20 20:53:00,57.2,57.2,29.81,NNW,328,0.0,0.0,100,0.00,,,0.21,Wunderground v.1.15,2013-11-21 04:53:00,
2013-11-20 20:58:00,57.2,57.2,29.81,NNW,328,0.0,0.0,100,0.00,,,0.21,Wunderground v.1.15,2013-11-21 04:58:00,
2013-11-20 21:01:00,57.2,57.2,29.81,NNW,328,0.0,0.0,100,0.00,,,0.21,Wunderground v.1.15,2013-11-21 05:01:00,
2013-11-20 21:02:00,57.2,57.2,29.81,NNW,328,0.0,0.0,100,0.00,,,0.21,Wunderground v.1.15,2013-11-21 05:02:00,
2013-11-20 21:07:00,57.2,57.2,29.81,NNW,328,0.0,0.0,100,0.00,,,0.21,Wunderground v.1.15,2013-11-21 05:07:00,
2013-11-20 21:12:00,57.2,57.2,29.81,NNW,328,0.0,0.0,100,0.00,,,0.21,Wunderground v.1.15,2013-11-21 05:12:00,
2013-11-20 21:17:00,57.2,57.2,29.81,NNW,328,0.0,0.0,100,0.00,,,0.21,Wunderground v.1.15,2013-11-21 05:17:00,
2013-11-20 21:22:00,57.0,57.0,29.81,NNW,328,0.0,0.0,100,0.00,,,0.21,Wunderground v.1.15,2013-11-21 05:22:00,
2013-11-20 21:27:00,57.0,57.0,29.81,NNW,328,0.0,0.0,100,0.00,,,0.21,Wunderground v.1.15,2013-11-21 05:27:00,
2013-11-20 21:32:00,57.0,57.0,29.81,NNW,328,0.0,0.0,100,0.00,,,0.22,Wunderground v.1.15,2013-11-21 05:32:00,
2013-11-20 21:37:00,57.0,57.0,29.81,NNW,328,0.0,0.0,100,0.00,,,0.22,Wunderground v.1.15,2013-11-21 05:37:00,
2013-11-20 21:42:00,57.0,57.0,29.81,NNW,328,0.0,0.0,100,0.00,,,0.22,Wunderground v.1.15,2013-11-21 05:42:00,
2013-11-20 21:47:00,57.0,57.0,29.81,NNW,328,0.0,0.0,100,0.00,,,0.22,Wunderground v.1.15,2013-11-21 05:47:00,
2013-11-20 21:52:00,57.0,57.0,29.81,NNW,328,0.0,0.0,100,0.00,,,0.22,Wunderground v.1.15,2013-11-21 05:52:00,
2013-11-20 21:57:00,57.0,57.0,29.81,NNW,328,0.0,0.0,100,0.00,,,0.22,Wunderground v.1.15,2013-11-21 05:57:00,
2013-11-20 21:58:00,57.0,57.0,29.81,NNW,328,0.0,0.0,100,0.00,,,0.22,Wunderground v.1.15,2013-11-21 05:58:00,
2013-11-20 22:03:00,57.0,57.0,29.81,NNW,328,0.0,0.0,100,0.00,,,0.22,Wunderground v.1.15,2013-11-21 06:03:00,
2013-11-20 22:08:00,57.0,57.0,29.81,NNW,328,0.0,0.0,100,0.00,,,0.22,Wunderground v.1.15,2013-11-21 06:08:00,
2013-11-20 22:13:00,57.0,57.0,29.81,NNW,328,0.0,0.0,100,0.00,,,0.22,Wunderground v.1.15,2013-11-21 06:13:00,
2013-11-20 22:18:00,57.0,57.0,29.81,NNW,328,0.0,0.0,100,0.00,,,0.22,Wunderground v.1.15,2013-11-21 06:18:00,
2013-11-20 22:23:00,57.0,57.0,29.81,NNW,328,0.0,0.0,100,0.00,,,0.22,Wunderground v.1.15,2013-11-21 06:23:00,
2013-11-20 22:28:00,57.0,57.0,29.81,NNW,328,0.0,1.0,100,0.00,,,0.22,Wunderground v.1.15,2013-11-21 06:28:00,
2013-11-20 22:33:00,56.9,56.9,29.81,NNW,328,0.0,0.0,100,0.00,,,0.22,Wunderground v.1.15,2013-11-21 06:33:00,
2013-11-20 22:38:00,56.9,56.9,29.81,NNW,328,0.0,0.0,100,0.00,,,0.22,Wunderground v.1.15,2013-11-21 06:38:00,
2013-11-20 22:43:00,56.9,56.9,29.81,NNW,328,0.0,0.0,100,0.00,,,0.23,Wunderground v.1.15,2013-11-21 06:43:00,
2013-11-20 22:48:00,56.9,56.9,29.81,NNW,328,0.0,0.0,100,0.00,,,0.23,Wunderground v.1.15,2013-11-21 06:48:00,
2013-11-20 22:53:00,56.9,56.9,29.81,NNW,328,0.0,0.0,100,0.00,,,0.23,Wunderground v.1.15,2013-11-21 06:53:00,
2013-11-20 22:58:00,56.9,56.9,29.81,NNW,328,0.0,0.0,100,0.00,,,0.23,Wunderground v.1.15,2013-11-21 06:58:00,
2013-11-20 23:03:00,56.7,56.7,29.81,NNW,328,0.0,0.0,100,0.00,,,0.23,Wunderground v.1.15,2013-11-21 07:03:00,
2013-11-20 23:08:00,56.7,56.7,29.81,NNW,328,0.0,0.0,100,0.00,,,0.23,Wunderground v.1.15,2013-11-21 07:08:00,
2013-11-20 23:13:00,56.7,56.7,29.81,NNW,328,0.0,0.0,100,0.00,,,0.23,Wunderground v.1.15,2013-11-21 07:13:00,
2013-11-20 23:18:00,56.7,56.7,29.81,NNW,328,0.0,0.0,100,0.00,,,0.23,Wunderground v.1.15,2013-11-21 07:18:00,
2013-11-20 23:23:00,56.6,56.6,29.81,NNW,328,0.0,0.0,100,0.00,,,0.23,Wunderground v.1.15,2013-11-21 07:23:00,
2013-11-20 23:28:00,56.6,56.6,29.81,NNW,328,0.0,0.0,100,0.00,,,0.23,Wunderground v.1.15,2013-11-21 07:28:00,
2013-11-20 23:33:00,56.6,56.6,29.81,NNW,328,0.0,2.0,100,0.00,,,0.23,Wunderground v.1.15,2013-11-21 07:33:00,
2013-11-20 23:38:00,56.6,56.6,29.81,NNE,32,0.0,2.0,100,0.00,,,0.23,Wunderground v.1.15,2013-11-21 07:38:00,
2013-11-20 23:43:00,56.5,56.5,29.81,NW,316,0.0,2.0,100,0.00,,,0.23,Wunderground v.1.15,2013-11-21 07:43:00,
2013-11-20 23:48:00,56.3,56.3,29.81,East,95,0.0,2.0,100,0.00,,,0.23,Wunderground v.1.15,2013-11-21 07:48:00,
2013-11-20 23:53:00,56.3,56.3,29.81,East,95,0.0,0.0,100,0.00,,,0.24,Wunderground v.1.15,2013-11-21 07:53:00,
2013-11-20 23:58:00,56.2,56.2,29.81,East,95,0.0,0.0,100,0.00,,,0.24,Wunderground v.1.15,2013-11-21 07:58:00,